Regional Weather Roundup
Issued by NWS Cleveland, OH

Home | Current Version | Previous Version | Graphics & Text | Print | Product List | Glossary On
Versions: 1 2 3 4 5 6 7 8 9 10 11 12 13 14 15 16 17 18 19 20 21 22 23 24 25 26 27 28 29 30 31 32 33 34 35 36 37 38 39 40 41 42 43 44 45 46 47 48 49 50
000
ASUS41 KCLE 191712
RWRCLE
OHIO REGIONAL WEATHER ROUNDUP
NATIONAL WEATHER SERVICE WILMINGTON, OH
100 PM EDT SAT AUG 19 2017

NOTE: "FAIR" INDICATES FEW OR NO CLOUDS BELOW 12,000 FEET WITH NO
SIGNIFICANT WEATHER AND/OR OBSTRUCTIONS TO VISIBILITY.

OHZ001>008-015>018-024>027-034-035-043-044-191800-
   NORTHWEST OHIO

CITY           SKY/WX    TMP DP  RH WIND       PRES   REMARKS
DEFIANCE       FAIR      77  63  61 NW9       29.95S
FINDLAY        FAIR      81  62  52 W14       29.94S
TOLEDO EXPRESS FAIR      78  64  61 W12       29.93S
TOLEDO EXEC    FAIR      79  63  57 W8        29.93F
LIMA           FAIR      78  66  66 N10       29.96S
$$

OHZ009>014-019>023-028>033-038-089-191800-
   NORTHEAST OHIO

CITY           SKY/WX    TMP DP  RH WIND       PRES   REMARKS
CLE-HOPKINS    PTSUNNY   80  62  54 W8        29.94S
CLE-LAKEFRONT  FAIR      75  66  73 W9        29.92R
CUY CO. ARPT   MOSUNNY   77  64  65 NW15      29.94R
LORAIN-ELYRIA  PTSUNNY   75  61  61 W9        29.94S
ASHTABULA      PTSUNNY   74  63  68 NW9       29.92F
AKRON-CANTON   FAIR      79  64  60 W9        29.93F
WOOSTER        PTSUNNY   78  67  68 W8        29.94F
MANSFIELD      PTSUNNY   77  65  66 NW8       29.95S
YOUNGSTOWN     PTSUNNY   77  61  57 SW10      29.92F
$$

OHZ042-051>053-060>062-070>072-077>081-191800-
  SOUTHWEST OHIO

CITY           SKY/WX    TMP DP  RH WIND       PRES   REMARKS
CINC-COVINGTON FAIR      83  70  64 SW8       29.97F
CINC-LUNKEN    FAIR      83  69  62 S8        29.97F
HAMILTON       PTSUNNY   83  68  60 VRB5      29.98S
DAYTON         FAIR      81  64  56 W13       29.98S
WRIGHT-PAT AFB MOSUNNY   82  64  53 SW13      29.96S
DAYTON GENERAL PTSUNNY   81  65  58 SW12G17   29.97S
WILMINGTON     FAIR      82  69  64 SW10      29.98S
$$

OHZ036-037-039>041-045>050-054>059-063>069-073>076-082>088-191800-
  CENTRAL AND SOUTHEAST OHIO

CITY           SKY/WX    TMP DP  RH WIND       PRES   REMARKS
COLUMBUS       FAIR      83  67  58 SW8       29.94S
OSU AIRPORT    FAIR      82  69  64 SW12      29.95S
BOLTON FIELD   SUNNY     81  68  65 SW13      29.97R
RICKENBACK AFB FAIR      81  67  61 W14       29.95S
NEWARK         FAIR      82  66  58 SW9       29.94S
MARION         FAIR      81  63  54 NW9       29.95R
LANCASTER      FAIR      83  66  56 SW12      29.96S
ZANESVILLE     FAIR      83  65  54 SW12      29.95S
NEW PHILLY     FAIR      80  68  66 SW7       29.94F
$$




USA.gov is the U.S. government's official web portal to all federal, state and local government web resources and services.